• Em Portugal
  • Lista de países
  • Para 7 dias
  • Temperatura da água
  • Mapas de satélite
  • Mapa do tempo
  • Widgets de tempo
  • user-avatar
    Iniciar Sessão

    Previsão horária em Rozyniec

    Hoje, 19 Setembro, Quarta-feira

    Tempo Temperatura Precipitação Vento Pressão Humidade
    00:00 +20°C° 0 mm 4 m/s 745 mmHg 67%
    01:00 +20°C° 0 mm 3 m/s 745 mmHg 67%
    02:00 +19°C° 0 mm 3 m/s 745 mmHg 67%
    03:00 +19°C° 0 mm 3 m/s 745 mmHg 68%
    04:00 +19°C° 0 mm 3 m/s 745 mmHg 68%
    05:00 +19°C° 0 mm 3 m/s 745 mmHg 68%
    06:00 +19°C° 0 mm 3 m/s 745 mmHg 68%
    07:00 +20°C° 0 mm 3 m/s 746 mmHg 67%
    08:00 +21°C° 0 mm 3 m/s 746 mmHg 62%
    09:00 +24°C° 0 mm 3 m/s 746 mmHg 58%
    10:00 +26°C° 0 mm 2 m/s 747 mmHg 53%
    11:00 +27°C° 0 mm 2 m/s 747 mmHg 50%
    12:00 +28°C° 0 mm 2 m/s 747 mmHg 47%
    13:00 +29°C° 0 mm 2 m/s 747 mmHg 44%
    14:00 +29°C° 0 mm 2 m/s 747 mmHg 44%
    15:00 +29°C° 0 mm 2 m/s 746 mmHg 44%
    16:00 +29°C° 0 mm 1 m/s 746 mmHg 44%
    17:00 +27°C° 0 mm 1 m/s 746 mmHg 50%
    18:00 +25°C° 0 mm 1 m/s 746 mmHg 56%
    19:00 +23°C° 0 mm 1 m/s 746 mmHg 62%
    20:00 +23°C° 0 mm 1 m/s 747 mmHg 64%
    21:00 +21°C° 0 mm 2 m/s 747 mmHg 66%
    22:00 +21°C° 0 mm 2 m/s 747 mmHg 68%
    23:00 +20°C° 0 mm 2 m/s 747 mmHg 69%

    Amanhã, 20 Setembro, Quinta-feira

    Tempo Temperatura Precipitação Vento Pressão Humidade
    00:00 +20°C° 0 mm 2 m/s 747 mmHg 69%
    01:00 +20°C° 0 mm 2 m/s 747 mmHg 70%
    02:00 +19°C° 0 mm 2 m/s 747 mmHg 71%
    03:00 +19°C° 0 mm 2 m/s 747 mmHg 71%
    04:00 +19°C° 0 mm 2 m/s 747 mmHg 72%
    05:00 +19°C° 0 mm 2 m/s 747 mmHg 71%
    06:00 +20°C° 0 mm 2 m/s 747 mmHg 70%
    07:00 +20°C° 0 mm 2 m/s 747 mmHg 70%
    08:00 +23°C° 0 mm 2 m/s 747 mmHg 63%
    09:00 +25°C° 0 mm 2 m/s 747 mmHg 57%
    10:00 +27°C° 0 mm 2 m/s 748 mmHg 50%
    11:00 +28°C° 0 mm 2 m/s 747 mmHg 47%
    12:00 +29°C° 0 mm 2 m/s 747 mmHg 44%
    13:00 +30°C° 0 mm 2 m/s 747 mmHg 41%
    14:00 +30°C° 0 mm 2 m/s 746 mmHg 41%
    15:00 +30°C° 0 mm 2 m/s 746 mmHg 41%
    16:00 +30°C° 0 mm 2 m/s 746 mmHg 42%
    17:00 +28°C° 0 mm 2 m/s 746 mmHg 47%
    18:00 +26°C° 0 mm 2 m/s 746 mmHg 53%
    19:00 +24°C° 0 mm 1 m/s 745 mmHg 58%
    20:00 +23°C° 0 mm 2 m/s 745 mmHg 59%
    21:00 +23°C° 0 mm 2 m/s 745 mmHg 60%
    22:00 +21°C° 0 mm 2 m/s 745 mmHg 61%
    23:00 +21°C° 0 mm 2 m/s 745 mmHg 62%

    Depois de amanhã, 21 Setembro, Sexta-feira

    Tempo Temperatura Precipitação Vento Pressão Humidade
    00:00 +20°C° 0 mm 2 m/s 745 mmHg 62%
    01:00 +20°C° 0 mm 2 m/s 744 mmHg 63%
    02:00 +20°C° 0 mm 3 m/s 744 mmHg 66%
    03:00 +19°C° 0 mm 3 m/s 744 mmHg 68%
    04:00 +19°C° 0 mm 3 m/s 743 mmHg 70%
    05:00 +19°C° 0 mm 3 m/s 743 mmHg 69%
    06:00 +20°C° 0 mm 3 m/s 743 mmHg 69%
    07:00 +20°C° 0 mm 3 m/s 742 mmHg 68%
    08:00 +22°C° 0 mm 4 m/s 742 mmHg 61%
    09:00 +25°C° 0 mm 5 m/s 742 mmHg 53%
    10:00 +27°C° 0 mm 6 m/s 742 mmHg 45%
    11:00 +28°C° 0 mm 6 m/s 741 mmHg 42%
    12:00 +29°C° 0 mm 6 m/s 741 mmHg 39%
    13:00 +30°C° 0 mm 6 m/s 740 mmHg 36%
    14:00 +30°C° 0 mm 6 m/s 740 mmHg 37%
    15:00 +29°C° 0 mm 5 m/s 740 mmHg 39%
    16:00 +29°C° 0 mm 5 m/s 739 mmHg 40%
    17:00 +27°C° 0 mm 5 m/s 740 mmHg 46%
    18:00 +25°C° 0 mm 5 m/s 740 mmHg 52%
    19:00 +23°C° 0 mm 5 m/s 740 mmHg 58%
    20:00 +21°C° 0.4 mm 5 m/s 741 mmHg 65%
    21:00 +19°C° 0.4 mm 5 m/s 742 mmHg 73%
    22:00 +16°C° 0.4 mm 5 m/s 743 mmHg 80%
    23:00 +15°C° 0.2 mm 4 m/s 743 mmHg 79%

    22 Setembro, Sábado

    Tempo Temperatura Precipitação Vento Pressão Humidade
    00:00 +14°C° 0.2 mm 4 m/s 744 mmHg 78%
    01:00 +13°C° 0.2 mm 3 m/s 744 mmHg 77%
    02:00 +13°C° 0.3 mm 3 m/s 745 mmHg 77%
    03:00 +13°C° 0.3 mm 3 m/s 745 mmHg 78%
    04:00 +12°C° 0.3 mm 3 m/s 745 mmHg 78%
    05:00 +12°C° 0 mm 3 m/s 746 mmHg 76%
    06:00 +12°C° 0 mm 3 m/s 746 mmHg 75%
    07:00 +12°C° 0 mm 3 m/s 746 mmHg 73%
    08:00 +13°C° 0 mm 4 m/s 746 mmHg 68%
    09:00 +13°C° 0 mm 4 m/s 746 mmHg 62%
    10:00 +14°C° 0 mm 5 m/s 746 mmHg 57%
    11:00 +15°C° 0.1 mm 5 m/s 746 mmHg 52%
    12:00 +16°C° 0.1 mm 5 m/s 746 mmHg 47%
    13:00 +17°C° 0.1 mm 6 m/s 746 mmHg 42%
    14:00 +17°C° 0 mm 5 m/s 745 mmHg 42%
    15:00 +17°C° 0 mm 5 m/s 745 mmHg 41%
    16:00 +16°C° 0 mm 5 m/s 745 mmHg 41%
    17:00 +15°C° 0 mm 4 m/s 745 mmHg 46%
    18:00 +13°C° 0 mm 3 m/s 746 mmHg 51%
    19:00 +12°C° 0 mm 3 m/s 746 mmHg 55%
    20:00 +11°C° 0 mm 3 m/s 746 mmHg 57%
    21:00 +11°C° 0 mm 3 m/s 747 mmHg 59%
    22:00 +10°C° 0 mm 3 m/s 747 mmHg 61%
    23:00 +10°C° 0 mm 3 m/s 747 mmHg 63%

    23 Setembro, Domingo

    Tempo Temperatura Precipitação Vento Pressão Humidade
    00:00 +10°C° 0 mm 3 m/s 747 mmHg 64%
    01:00 +9°C° 0 mm 3 m/s 747 mmHg 66%
    02:00 +9°C° 0 mm 3 m/s 747 mmHg 68%
    03:00 +9°C° 0 mm 2 m/s 747 mmHg 70%
    04:00 +8°C° 0 mm 2 m/s 747 mmHg 72%
    05:00 +8°C° 0 mm 2 m/s 747 mmHg 71%
    06:00 +9°C° 0 mm 2 m/s 747 mmHg 70%
    07:00 +9°C° 0 mm 2 m/s 747 mmHg 70%
    08:00 +12°C° 0 mm 2 m/s 746 mmHg 62%
    09:00 +14°C° 0 mm 2 m/s 746 mmHg 54%
    10:00 +16°C° 0 mm 3 m/s 746 mmHg 46%
    11:00 +17°C° 0 mm 3 m/s 745 mmHg 43%
    12:00 +18°C° 0 mm 4 m/s 743 mmHg 40%
    13:00 +19°C° 0 mm 5 m/s 742 mmHg 36%
    14:00 +19°C° 0 mm 5 m/s 741 mmHg 38%
    15:00 +19°C° 0 mm 5 m/s 740 mmHg 40%
    16:00 +19°C° 0 mm 6 m/s 738 mmHg 42%
    17:00 +17°C° 0 mm 6 m/s 737 mmHg 46%
    18:00 +17°C° 0 mm 6 m/s 736 mmHg 50%
    19:00 +16°C° 0 mm 7 m/s 735 mmHg 54%
    20:00 +16°C° 0.2 mm 7 m/s 734 mmHg 56%
    21:00 +16°C° 0.2 mm 6 m/s 733 mmHg 58%
    22:00 +16°C° 0.2 mm 6 m/s 732 mmHg 60%
    23:00 +16°C° 0.8 mm 6 m/s 732 mmHg 66%

    24 Setembro, Segunda-feira

    Tempo Temperatura Precipitação Vento Pressão Humidade
    00:00 +15°C° 0.8 mm 5 m/s 732 mmHg 72%
    01:00 +15°C° 0.8 mm 5 m/s 733 mmHg 77%
    02:00 +14°C° 0.4 mm 5 m/s 732 mmHg 78%
    03:00 +13°C° 0.4 mm 6 m/s 732 mmHg 78%
    04:00 +11°C° 0.4 mm 6 m/s 732 mmHg 79%
    05:00 +11°C° 0.2 mm 6 m/s 732 mmHg 78%
    06:00 +11°C° 0.2 mm 6 m/s 732 mmHg 77%
    07:00 +10°C° 0.2 mm 5 m/s 732 mmHg 76%
    08:00 +11°C° 0.1 mm 6 m/s 731 mmHg 72%
    09:00 +12°C° 0.1 mm 7 m/s 731 mmHg 68%
    10:00 +12°C° 0.1 mm 8 m/s 731 mmHg 64%
    11:00 +14°C° 0 mm 7 m/s 731 mmHg 64%
    12:00 +14°C° 0 mm 7 m/s 731 mmHg 64%
    13:00 +14°C° 0 mm 7 m/s 731 mmHg 64%
    14:00 +12°C° 0.2 mm 7 m/s 732 mmHg 68%
    15:00 +11°C° 0.2 mm 8 m/s 733 mmHg 72%
    16:00 +11°C° 0.2 mm 9 m/s 734 mmHg 76%
    17:00 +10°C° 0 mm 9 m/s 735 mmHg 75%
    18:00 +9°C° 0 mm 8 m/s 736 mmHg 73%
    19:00 +9°C° 0 mm 8 m/s 737 mmHg 72%
    20:00 +9°C° 0 mm 8 m/s 738 mmHg 71%
    21:00 +9°C° 0 mm 8 m/s 739 mmHg 70%
    22:00 +8°C° 0 mm 9 m/s 740 mmHg 68%
    23:00 +7°C° 0.1 mm 9 m/s 740 mmHg 71%
    Mostrar mais